sat.trackr.live / text

‹ back to catalog

STARLINK-30952

NORAD 58405 · 2023-180D

PAYLOAD ACTIVE UNKNOWN

§ Identity

Operator
Country
US
Launch date
2023-11-22
Launch site
AFETR
Launch vehicle
Mass (kg)
RCS (m²)

Purposes: comms

External: N2YO · Heavens-Above · Gunter

§ Orbital elements

Epoch: 2026-05-24T20:35:10.326624Z

Period
94.27 min
Inclination
43.0029°
Eccentricity
0.0000989
Mean motion
15.27580240 rev/d
Perigee alt
482.4 km
Apogee alt
483.7 km
Semi-major
6,861.2 km
B*
5.8262e-5
RAAN
342.5063°
Arg perigee
280.0271°
Mean anomaly
80.0469°
Rev number
13,916

§ Raw data

STARLINK-309521 58405U 23180D   26144.85775841  .00001342  00000+0  58262-4 0  99942 58405  43.0029 342.5063 0000989 280.0271  80.0469 15.27580240139162

JSON: /api/v1/satellites/58405 · /tle

For live sub-satellite position, see the globe view (requires WebGL).

§ Visibility from observer

Set your observer location to see the next 7 days of passes ≥ 10°. The values pass through the URL so the page stays shareable.

No JS? Fill the form by hand. The geolocation button needs JavaScript.